This is the latest recevied weather packets stored in our database for station/object W8MRL. If no packets are shown the sender has not sent any weather packets the latest 10 day(s).
| Time | Temp. | Humidity | Pressure | Rain* | Wind** | Luminosity | Snow |
|---|---|---|---|---|---|---|---|
| 1777514414 | 11.67° C | 80% | 1016.7 hPa | 0 mm | - | - | - |
| 1777513509 | 11.67° C | 79% | 1016.5 hPa | 0 mm | - | - | - |
| 1777512609 | 12.22° C | 78% | 1016.2 hPa | 0 mm | - | - | - |
| 1777511708 | 12.78° C | 76% | 1016.2 hPa | 0 mm | - | - | - |
| 1777510812 | 12.78° C | 75% | 1016 hPa | 0 mm | - | - | - |
| 1777509907 | 13.33° C | 73% | 1015.7 hPa | 0 mm | - | - | - |
| 1777509007 | 13.89° C | 71% | 1015.5 hPa | 0 mm | - | - | - |
| 1777508107 | 14.44° C | 70% | 1015.4 hPa | 0 mm | - | - | - |
| 1777507206 | 15° C | 70% | 1015.1 hPa | 0 mm | - | - | - |
| 1777506305 | 15° C | 70% | 1015.1 hPa | 0 mm | - | - | - |
| 1777505404 | 15.56° C | 68% | 1015 hPa | 0 mm | - | - | - |
| 1777504503 | 16.11° C | 68% | 1015 hPa | 0 mm | - | - | - |
| 1777503604 | 16.67° C | 67% | 1014.7 hPa | 0 mm | - | - | - |
| 1777502702 | 16.67° C | 65% | 1014.6 hPa | 0 mm | - | - | - |
| 1777501802 | 17.22° C | 66% | 1014.6 hPa | 0 mm | - | - | - |
| 1777500902 | 17.22° C | 66% | 1014.3 hPa | 0 mm | - | - | - |
| 1777500060 | 17.78° C | 65% | 1014.2 hPa | 0 mm | - | - | - |
| 1777499164 | 17.22° C | 66% | 1014.2 hPa | 0 mm | - | - | - |
| 1777498262 | 17.22° C | 69% | 1013.9 hPa | 0 mm | - | - | - |
| 1777497365 | 17.22° C | 71% | 1014 hPa | 0 mm | - | - | - |
| 1777496466 | 17.78° C | 69% | 1013.9 hPa | 0 mm | - | - | - |
| 1777495579 | 17.78° C | 67% | 1013.7 hPa | 0 mm | - | - | - |
| 1777494656 | 18.33° C | 71% | 1013.7 hPa | 0 mm | - | - | - |
| 1777493754 | 17.22° C | 75% | 1013.7 hPa | 0 mm | - | - | - |
| 1777492858 | 17.22° C | 71% | 1014 hPa | 0 mm | - | - | - |
* Rain latest hour (hover to see other rain measurements)
** Current wind speed in m/s (hover to see current wind gust speed)